Location: Isle of Man Observatory
(54.1776°N, 4.6264°W)
Time: 07:29:29
(UTC+01:00)

N. Korean satellite - Visible Passes

Search period start: 01 December 2021 00:00
Search period end: 11 December 2021 00:00
Orbit: 447 x 495 km, 97.3° (Epoch: 30 November)

Date Brightness Start Highest point End Pass type
(mag) Time Alt. Az. Time Alt. Az. Time Alt. Az.
01 Dec 9.4 05:42:43 10° NE 05:44:55 16° E 05:47:07 10° SE visible
01 Dec 6.5 07:15:06 10° N 07:18:25 48° WNW 07:21:41 10° SW visible
01 Dec 7.7 17:55:14 10° S 17:58:41 48° W 18:02:06 10° NNW visible
02 Dec 6.4 06:46:31 10° NNE 06:49:57 80° ESE 06:53:20 10° S visible
02 Dec 8.3 08:21:09 10° NNW 08:22:38 12° WNW 08:24:07 10° W visible
02 Dec 10.1 19:02:51 10° WSW 19:03:50 11° W 19:04:51 10° WNW visible
03 Dec 7.9 06:18:10 10° NNE 06:21:22 37° E 06:24:32 10° SSE visible
03 Dec 7.6 07:51:44 10° NNW 07:54:24 21° WNW 07:57:03 10° WSW visible
03 Dec 9.4 18:32:21 10° SW 18:35:04 20° W 18:37:46 10° NW visible
04 Dec 9.2 05:50:10 10° NE 05:52:40 19° E 05:55:10 10° SE visible
04 Dec 6.8 07:22:50 10° N 07:26:03 40° WNW 07:29:14 10° SW visible
04 Dec 8.1 18:03:03 10° S 18:06:23 39° W 18:09:42 10° NNW visible
05 Dec 6.2 06:54:11 10° NNE 06:57:35 84° WNW 07:00:59 10° SSW visible
05 Dec 8.4 08:29:25 10° NW 08:30:12 11° NW 08:30:58 10° WNW visible
06 Dec 7.5 06:25:43 10° NNE 06:29:01 45° E 06:32:17 10° S visible
06 Dec 7.8 07:59:32 10° NNW 08:01:57 18° WNW 08:04:22 10° WSW visible
06 Dec 9.6 18:40:22 10° SW 18:42:45 17° W 18:45:07 10° NW visible
07 Dec 8.9 05:57:34 10° NE 06:00:19 23° E 06:03:03 10° SSE visible
07 Dec 7.0 07:30:31 10° N 07:33:36 33° WNW 07:36:41 10° SW visible
07 Dec 8.5 18:10:50 10° SSW 18:14:00 32° W 18:17:10 10° NNW visible
08 Dec 9.8 05:30:08 10° ENE 05:31:31 12° E 05:32:52 10° ESE visible
08 Dec 6.2 07:01:46 10° N 07:05:09 69° WNW 07:08:31 10° SSW visible
08 Dec 6.9 17:41:54 10° S 17:45:21 67° WSW 17:48:48 10° NNW visible
09 Dec 7.0 06:33:13 10° NNE 06:36:34 55° ESE 06:39:54 10° S visible
09 Dec 8.0 08:07:16 10° NNW 08:09:25 16° WNW 08:11:33 10° W visible
09 Dec 9.7 18:48:22 10° SW 18:50:20 14° W 18:52:19 10° NW visible
10 Dec 8.6 06:04:55 10° NE 06:09:32 18° SE 06:10:49 10° SSE visible
10 Dec 7.3 07:38:06 10° N 07:41:04 28° WNW 07:44:00 10° SW visible
10 Dec 8.9 18:18:32 10° SSW 18:21:33 27° W 18:24:32 10° NW visible
